STARLINK-3534, 52120

Orbit data source: Space-Track

STARLINK-3534, 52120 is a payload satellite owned by SpaceX/Seattle (US) in LEO that was launched on Sat, 19 Mar 2022 UTC via an FALCON 9 launch vehicle from the Air Force Eastern Test Range (AFETR). Payload-class satellites include a variety of spacecraft equipped with specific instruments for various scientific and technological missions. These include communications satellites like Starlink; space stations such as the ISS; scientific satellites like the Hubble; Earth observation satellites from companies like Planet Labs, Umbra, and HawkEye 360; GPS; miniature CubeSats for education and research; and military/defense satellites.

Loading next visibility...
Identifier
52120, 2022-029AJ
Orbit
LEO
Country
Flag of USUS
Related business
Manufacturer
SpaceX/Seattle
Mission
Operational Commercial Communications
Bus & Motor
STARLINK, Unknown motor
Mass
297 kg wet, ~275 kg dry
Launch date (UTC)
2022-03-19 (4 years ago)
Launch vehicle
FALCON 9
Launch site
Air Force Eastern Test Range (AFETR)
Object type
Payload
Rocket body
Debris
Shape & HBR
Box + 1 Pan, 10.1 m
Radar Cross Section
13.562 m², Large (>1 m²)

Expand to show TLE details & history
Last TLE update: 2 days ago

TLE from 2 days ago
0 STARLINK-3534
1 52120U 22029AJ  26171.41668980  .00111905  00000-0  47965-2 0  9994
2 52120  53.1593 337.4665 0001097 147.7026 128.0121 15.21882706  5826
Epoch: 2026-06-20T10:00Z
TLE epoch observation values (Epoch: 2026-06-20T10:00:01.998Z)
Latitude
-52.93337°
Longitude
-161.70375°
Altitude
519.03 km
Speed
7.603 km/s
True Right ascension
17h 07m 44s
True Declination
-52° 45' 43"
Sunlit
Object was in full shadow at epoch
Visualization orbit readout
Latitude
Unknown
Longitude
Unknown
Altitude
Unknown
Speed
Unknown
Apparent Right ascension
Unknown
Apparent Declination
Unknown
Sunlit
N/A
Visualization observer readout
Local Sidereal Time
00:34:19
Azimuth
Unknown
Elevation
Unknown
Doppler factor
Unknown
Orbital elements
Apogee altitude
501.172 km
Perigee altitude
499.663 km
Semi-major axis
6,878.555 km
Eccentricity
0.00011
Inclination
53.1593°
RAAN
337.4665°
Arg. of periapsis
147.7026°
True anomaly
128.022°
Mean anomaly
128.0121°
Eccentric anomaly
128.01705°
Mean motion
3.8045 °/min
Orbital period
94.62 mins
BSTAR
0.0047965
Loading maneuver chart data...
Computing Atmospheric mass density...

Documentation

Showing up to 5 results
|